GEFSSE_con_probscp_000.txt.gz
Probability
0 1 1 1 0 0 0 0 0 0 0 0 0 0 0 0 0 0 0 0 0 0 0 0 0 0 0 0 0 0 0 0 0 0 0 0 0 0 0 0 0 0 0
0 0 0 0 0 0 0 0 0 0 0 0 0 0 0 0 0 0 0 0 0 0 0 0 0 0 0 0 0 0 0 0 0 0 0 0 0 0 0 0 0 0 0
0 0 0 0 0 0 0 0 0 0 0 0 0 0 0 0 0 0 0 0 0 0 0 0 0 0 0 0 0 0 0 0 0 0 0 0 0 0 0 0 0 0 0
0 1 2 3 2 1 1 1 0 0 0 0 0 0 0 0 0 0 0 0 0 0 0 0 0 0 0 0 0 0 0 0 0 0 0 0 0 0 0 0 0 0 0
1 3 8 12 10 5 4 4 2 1 0 0 0 0 0 0 0 0 0 0 0 0 0 0 0 0 0 0 0 0 0 0 0 0 0 0 0 0 0 0 0 0 0
2 7 19 30 28 20 16 12 8 4 1 0 0 0 0 0 0 0 0 0 0 0 0 0 0 0 0 0 0 0 0 0 0 0 0 0 0 0 0 0 0 0 0
4 10 25 43 49 45 38 25 15 8 3 0 0 0 0 0 0 0 0 0 0 0 0 0 0 0 0 0 0 0 0 0 0 0 0 0 0 0 0 0 0 0 0
6 11 23 36 49 57 51 34 18 11 7 2 0 0 0 0 0 0 0 0 0 0 0 0 0 0 0 0 1 1 0 0 0 0 0 0 0 0 0 0 0 0 0
8 12 18 22 29 38 39 28 15 9 7 4 2 1 0 0 0 0 0 0 0 0 0 0 0 0 2 3 3 2 1 0 0 0 0 0 0 0 0 1 3 3 3
9 14 15 12 11 14 17 15 9 5 5 4 3 2 1 0 0 0 0 0 0 0 0 0 0 2 6 9 9 6 3 0 0 0 0 0 0 0 2 6 11 15 16
7 10 10 6 3 4 6 8 7 5 5 6 6 4 2 1 0 0 0 0 0 0 0 1 2 4 9 12 12 10 6 2 1 0 0 0 1 2 7 15 23 32 39
3 5 5 3 0 1 3 6 7 7 8 12 13 10 5 3 3 3 3 4 3 2 3 6 7 6 6 8 9 8 5 3 1 0 1 2 2 5 19 36 45 51 57
6 4 2 1 0 0 2 5 9 11 14 21 27 23 13 9 10 11 13 20 25 25 27 27 20 10 6 6 6 4 3 2 1 1 3 4 4 9 35 64 73 69 68
27 19 12 9 5 1 1 6 16 24 31 43 50 45 35 30 30 29 31 43 59 64 65 60 42 22 13 10 6 2 1 1 1 2 5 9 14 28 58 85 90 84 80
62 47 36 32 20 6 3 13 30 45 56 65 69 67 64 61 61 60 57 62 76 85 85 80 64 43 32 28 21 12 5 2 4 5 6 16 37 61 81 94 95 92 90
86 74 65 62 46 24 17 30 54 70 73 72 73 77 81 82 83 85 81 77 77 78 78 77 71 59 53 51 44 30 15 8 12 17 14 21 50 78 92 97 98 98 96
95 91 88 85 76 60 49 58 77 85 79 71 68 72 80 87 92 94 92 86 78 71 70 74 71 63 57 55 48 32 16 12 18 26 25 26 47 77 94 98 100 100 99
99 99 98 97 94 87 81 81 86 83 71 62 60 61 69 82 91 94 92 88 80 75 78 83 78 65 49 40 30 16 7 8 15 24 26 30 50 77 94 99 100 100 100
100 100 100 98 96 93 89 84 79 69 52 42 42 47 57 74 87 91 90 89 85 84 90 93 86 69 46 30 19 9 3 3 9 16 18 24 44 71 90 97 98 99 99
99 99 97 95 92 90 83 72 61 47 33 27 29 36 50 68 80 86 87 89 90 92 93 92 86 71 48 27 15 9 4 3 6 8 9 11 21 45 72 87 91 94 95
90 92 93 91 86 83 75 59 41 30 26 25 24 31 42 54 68 74 78 85 93 95 94 90 84 73 48 21 8 5 3 1 2 2 2 2 5 18 40 57 67 79 85
64 68 73 75 73 72 67 50 32 26 27 25 25 28 31 38 54 64 69 79 90 94 94 92 87 76 49 17 2 1 0 0 0 0 0 1 1 5 13 20 34 52 60
32 31 36 44 55 66 66 51 33 25 23 20 19 20 19 23 38 55 66 78 85 86 84 85 87 83 61 30 12 6 2 0 0 0 0 0 0 0 1 2 11 23 26
8 7 9 17 33 53 60 47 28 16 12 11 9 7 7 9 17 34 53 67 75 74 65 63 75 83 73 51 26 11 3 0 0 0 0 0 0 0 0 0 3 5 5
0 1 2 5 13 31 41 33 17 7 3 3 2 0 0 0 2 11 26 40 51 54 40 32 49 65 64 48 25 8 2 0 0 0 0 0 0 0 0 0 0 0 0
0 0 0 0 3 16 28 23 11 3 1 0 0 0 0 0 0 2 9 20 32 35 22 16 29 44 44 31 14 3 0 0 0 0 0 0 0 0 0 0 0 0 0

GEFSSE_con_probscp_006.txt.gz
Probability
0 0 0 0 0 0 0 0 0 0 0 0 0 0 0 0 0 0 0 0 0 0 0 0 0 0 0 0 0 0 0 0 0 0 0 0 0 0 0 0 0 0 0
0 0 0 0 0 0 0 0 0 0 0 0 0 0 0 0 0 0 0 0 0 0 0 0 0 0 0 0 0 0 0 0 0 0 0 0 0 0 0 0 0 0 0
0 0 0 0 0 0 0 0 0 0 0 0 0 0 0 0 0 0 0 0 0 0 0 0 0 0 0 0 0 0 0 0 0 0 0 0 0 0 0 0 0 0 0
0 0 0 0 0 0 0 0 0 0 0 0 0 0 0 0 0 0 0 0 0 0 0 0 0 0 0 0 0 0 0 0 0 0 0 0 0 0 0 0 0 0 0
0 0 0 0 0 0 0 0 0 0 0 0 0 0 0 0 0 0 0 0 0 0 0 0 0 0 0 0 0 0 0 0 0 0 0 0 0 0 0 0 0 0 0
0 0 0 0 0 0 0 0 0 0 0 0 0 0 0 0 0 0 0 0 0 0 0 0 0 0 0 0 0 0 0 0 0 0 0 0 0 0 0 0 0 0 0
1 0 0 0 0 0 0 0 0 0 0 0 0 0 0 0 0 0 0 0 0 0 0 0 0 0 0 0 0 0 0 0 0 0 0 0 0 0 0 0 0 0 0
1 0 0 0 0 0 0 0 0 0 0 0 0 0 0 0 0 0 0 0 0 0 0 0 0 0 0 0 0 0 0 0 0 0 0 0 0 0 0 0 0 0 0
1 0 0 0 0 0 0 0 0 0 0 0 0 0 0 0 0 0 0 0 0 0 0 0 0 0 0 0 0 0 0 0 0 0 0 0 0 0 0 0 0 0 0
0 0 0 0 0 0 0 0 0 0 0 0 0 0 0 0 0 0 0 0 0 0 0 0 0 0 0 0 0 0 0 0 0 0 0 0 0 0 0 0 0 0 0
1 2 6 10 13 15 16 15 13 12 9 7 5 3 1 1 0 0 0 0 0 0 0 0 0 0 0 0 0 0 0 0 0 0 0 0 0 0 0 0 0 0 0
1 6 16 29 39 47 51 49 46 44 39 34 27 19 13 8 3 1 1 1 1 1 1 0 0 0 1 2 2 1 0 0 0 0 0 0 0 0 0 0 0 0 0
1 5 17 36 55 70 77 75 73 74 72 67 61 53 43 29 14 7 7 10 13 13 7 2 1 0 2 5 5 3 1 1 0 0 0 0 0 0 0 0 0 0 0
0 2 10 27 49 64 70 68 69 76 81 82 82 84 78 62 42 28 26 33 38 34 21 12 8 5 5 7 7 4 3 3 1 0 0 0 0 0 0 0 0 0 0
1 1 4 15 32 45 46 44 47 59 69 73 82 94 96 89 77 65 62 66 66 56 43 31 23 19 21 24 23 17 10 5 3 1 0 0 0 0 0 0 0 0 0
12 8 5 8 18 23 22 21 26 36 45 52 65 82 93 97 95 91 89 90 87 79 68 56 46 41 45 50 46 34 22 12 5 1 0 0 0 0 0 0 0 0 0
45 37 27 24 24 19 12 9 12 19 24 31 47 63 73 81 86 86 86 88 92 91 86 77 68 61 60 61 54 43 34 22 10 3 2 1 0 0 0 0 0 0 0
83 75 63 56 49 35 20 11 14 25 29 32 42 49 47 48 54 60 63 68 79 91 93 88 81 74 69 65 60 52 45 33 16 6 3 2 0 0 0 0 0 0 0
88 84 75 68 59 44 26 15 18 30 35 32 34 33 26 21 24 31 37 43 59 80 90 90 88 85 82 75 66 57 51 38 19 6 2 1 0 0 0 0 1 1 2
59 58 56 53 46 32 17 8 8 14 17 15 14 13 10 8 9 13 15 20 34 54 72 83 87 87 85 74 54 42 37 26 14 5 1 0 0 0 0 0 2 3 4
25 28 33 34 27 16 6 1 0 0 1 1 1 2 1 2 3 3 3 5 12 25 44 65 76 78 74 60 42 27 15 8 5 2 0 0 0 0 0 0 1 3 3
8 10 15 16 12 6 2 0 0 0 0 0 0 0 0 0 0 0 0 0 2 8 21 39 56 65 60 47 35 21 6 0 0 0 0 0 0 0 0 0 0 1 1
2 3 5 5 5 4 4 3 2 1 0 0 0 0 0 0 0 0 0 0 0 2 7 16 30 47 51 40 26 14 4 0 0 0 0 0 0 0 0 0 0 0 0
0 0 1 3 4 5 7 8 6 2 0 0 0 0 0 0 0 0 0 0 0 0 1 4 15 35 46 40 29 16 6 1 0 0 0 0 0 0 0 0 0 0 0
0 0 0 1 2 4 7 7 6 3 1 0 0 0 0 0 0 0 0 0 0 0 0 2 10 26 39 40 37 30 19 10 4 1 0 0 0 0 0 0 0 0 0
0 0 0 0 1 2 3 3 3 3 2 1 0 0 0 0 0 0 0 0 0 0 0 1 6 17 30 35 37 38 34 22 10 3 0 0 0 0 0 0 0 0 0

GEFSSE_con_probscp_012.txt.gz
Probability
0 0 0 0 0 0 0 0 0 0 0 0 0 0 0 0 0 0 0 0 0 0 0 0 0 0 0 0 0 0 0 0 0 0 0 0 0 0 0 0 0 0 0
0 0 0 0 0 0 0 0 0 0 0 0 0 0 0 0 0 0 0 0 0 0 0 0 0 0 0 0 0 0 0 0 0 0 0 0 0 0 0 0 0 0 0
0 0 0 0 0 0 0 0 0 0 0 0 0 0 0 0 0 0 0 0 0 0 0 0 0 0 0 0 0 0 0 0 0 0 0 0 0 0 0 0 0 0 0
0 0 0 0 0 0 0 0 0 0 0 0 0 0 0 0 0 0 0 0 0 0 0 0 0 0 0 0 0 0 0 0 0 0 0 0 0 0 0 0 0 0 0
0 0 0 0 0 0 0 0 0 0 0 0 0 0 0 0 0 0 0 0 0 0 0 0 0 0 0 0 0 0 0 0 0 0 0 0 0 0 0 0 0 0 0
0 0 0 0 0 0 0 0 0 0 0 0 0 0 0 0 0 0 0 0 0 0 0 0 0 0 0 0 0 0 0 0 0 0 0 0 0 0 0 0 0 0 0
0 0 0 0 0 0 0 0 0 0 0 0 0 0 0 0 0 0 0 0 0 0 0 0 0 0 0 0 0 0 0 0 0 0 0 0 0 0 0 0 0 0 0
0 0 0 0 0 0 0 0 0 0 0 0 0 0 0 0 0 0 0 0 0 0 0 0 0 0 0 0 0 0 0 0 0 0 0 0 0 0 0 0 0 0 0
0 0 0 0 0 0 0 0 0 0 0 0 0 0 0 0 0 0 0 0 0 0 0 0 0 0 0 0 0 0 0 0 0 0 0 3 5 3 0 0 0 0 0
0 0 0 0 0 0 1 2 3 2 1 0 0 0 0 0 0 0 0 0 0 0 0 0 0 0 0 0 0 0 0 0 0 0 0 7 13 7 0 0 0 0 0
0 0 0 0 0 0 2 8 10 9 6 3 0 2 2 1 0 0 3 5 3 0 0 0 0 0 0 0 1 1 1 0 0 0 4 14 17 7 0 0 0 0 0
0 0 0 0 0 0 4 16 26 27 25 16 8 10 12 8 5 8 14 17 9 1 1 2 3 2 0 0 2 4 2 0 0 0 12 27 22 6 0 0 0 0 0
1 1 0 0 0 0 5 22 43 54 55 46 35 36 40 37 34 39 44 40 26 15 12 15 14 7 2 2 4 6 6 7 7 8 24 41 29 8 0 0 0 0 0
4 3 2 0 0 1 5 19 39 54 63 69 71 73 76 77 76 78 79 71 58 48 40 37 32 21 13 10 8 6 9 16 17 21 35 39 27 9 1 0 0 0 0
10 8 6 6 8 12 16 19 21 28 40 56 72 82 88 94 94 94 93 89 82 75 68 61 51 41 36 29 18 10 12 18 22 27 33 30 21 12 4 1 0 0 1
15 15 17 23 31 38 41 36 27 24 26 37 51 61 70 80 82 80 79 77 74 75 77 72 62 57 57 50 35 25 23 24 25 27 26 23 19 16 10 5 2 2 2
23 27 36 49 60 67 66 61 55 49 44 49 55 51 49 56 63 63 58 53 55 64 74 73 69 70 72 68 58 48 43 38 34 31 27 22 18 16 16 15 12 9 8
32 41 56 71 82 85 80 74 69 64 63 68 68 55 39 36 43 50 51 48 50 58 68 73 78 83 86 84 79 70 61 53 44 36 30 26 23 19 23 33 35 29 24
43 53 70 85 91 89 80 71 60 54 54 54 52 43 30 22 24 32 39 40 40 44 55 65 76 84 88 89 86 82 76 68 58 45 34 31 30 27 30 48 61 54 44
61 68 80 88 86 74 61 50 39 30 25 23 22 19 13 8 8 11 15 16 18 22 30 42 52 58 64 69 71 75 78 77 72 64 53 44 38 33 37 56 73 71 62
77 80 82 77 62 44 31 24 17 9 5 4 4 4 2 1 1 1 1 2 3 6 11 18 22 23 26 35 43 50 56 65 73 77 73 63 49 39 40 50 66 77 78
72 72 67 53 32 15 8 6 4 2 0 0 0 0 0 0 0 0 0 1 1 1 3 4 5 4 4 10 18 24 25 35 52 65 74 74 62 50 38 33 48 71 80
49 47 41 30 18 10 6 3 1 0 0 0 0 0 0 0 0 0 0 0 0 0 0 0 1 1 1 3 12 20 16 14 23 41 60 68 64 57 42 31 39 56 66
33 29 25 23 25 28 25 17 8 2 0 0 0 0 1 0 0 0 0 0 0 0 0 0 0 2 3 5 16 28 27 19 16 23 41 51 53 54 52 49 49 54 59
30 25 21 28 43 52 50 39 23 9 2 1 0 1 2 1 0 0 0 0 0 0 0 0 0 2 5 8 16 25 32 32 24 16 19 31 41 47 57 66 67 64 65
32 24 20 32 53 65 62 52 34 15 5 2 0 1 1 1 0 0 0 0 0 0 0 0 0 1 4 8 12 18 27 33 27 13 8 18 33 45 60 71 73 71 70

GEFSSE_con_probscp_018.txt.gz
Probability
0 0 0 0 0 0 0 0 0 0 0 0 0 0 0 0 0 0 0 0 0 0 0 0 0 0 0 0 0 0 0 0 0 0 0 0 0 0 0 0 0 0 0
0 0 0 0 0 0 0 0 0 0 0 0 0 0 0 0 0 0 0 0 0 0 0 0 0 0 0 0 0 0 0 0 0 0 0 0 0 0 0 0 0 0 0
0 0 0 0 0 0 0 0 0 0 0 0 0 0 0 0 0 0 0 0 0 0 0 0 0 0 0 0 0 0 0 0 0 0 0 0 0 0 0 0 0 0 0
0 0 0 0 0 0 0 0 0 0 0 0 0 0 0 0 0 0 0 0 0 0 0 0 0 0 0 0 0 0 0 0 0 0 0 0 0 0 0 0 0 0 0
0 0 0 0 0 0 0 0 0 0 0 0 0 0 0 0 0 0 0 0 0 0 0 0 0 0 0 0 0 0 0 0 0 0 0 0 0 0 0 0 0 0 0
0 0 0 0 0 0 0 0 0 0 0 0 0 0 0 0 0 0 0 0 0 0 0 0 0 0 0 0 0 0 0 0 0 0 0 0 0 0 0 0 0 0 0
0 0 0 0 0 0 0 0 0 0 0 0 0 0 0 0 0 0 0 0 0 0 0 0 0 0 0 0 0 0 0 0 0 0 0 0 2 2 1 0 0 0 0
0 0 0 0 0 0 0 0 0 0 0 0 0 0 0 0 0 0 0 0 0 0 0 0 0 0 0 0 0 0 0 0 0 0 0 3 13 20 14 5 1 0 0
2 1 0 0 0 0 0 0 0 0 0 0 0 0 0 0 0 0 0 0 0 0 0 0 0 0 1 1 2 1 1 1 0 0 0 11 38 55 44 23 8 1 0
11 9 4 1 1 1 0 1 3 4 3 2 1 0 0 0 1 6 9 8 5 5 7 9 8 6 7 9 12 14 12 6 1 0 1 21 62 84 75 49 22 6 1
16 17 13 14 15 7 6 16 20 17 16 11 8 13 13 6 3 15 30 33 30 30 34 38 35 30 26 23 30 41 38 19 4 1 7 35 75 96 90 68 38 14 4
10 14 21 38 42 22 24 49 47 36 41 37 28 39 45 31 16 26 53 67 64 66 71 74 69 64 54 39 39 56 56 30 8 4 19 52 84 98 94 75 46 21 7
9 9 19 49 63 46 52 77 73 63 72 72 62 68 77 69 51 51 73 87 87 89 92 91 88 83 71 47 35 51 59 39 23 21 36 64 87 95 90 72 48 24 9
31 20 23 54 77 73 74 88 90 88 93 94 89 89 93 93 86 83 89 95 95 96 96 93 90 87 76 54 41 49 57 50 45 49 55 68 80 84 79 67 48 25 10
67 52 53 75 91 92 88 91 96 98 99 99 99 99 98 99 98 97 96 96 96 94 92 88 85 83 77 64 50 49 52 52 56 62 66 70 75 74 70 65 51 29 15
92 86 86 94 99 99 96 95 96 98 99 99 99 99 99 100 99 98 96 93 91 88 82 79 78 76 72 63 50 43 45 49 52 56 62 68 73 72 68 64 55 38 25
100 99 99 100 100 100 100 99 98 98 99 100 99 98 98 98 99 99 97 92 87 82 78 74 74 72 68 61 51 47 52 54 52 50 54 60 65 67 64 60 53 43 36
100 100 100 100 100 100 100 99 98 98 98 97 96 95 92 88 87 89 88 82 75 72 70 67 69 72 70 65 60 59 64 64 57 50 50 54 55 54 54 52 48 44 40
100 100 100 100 100 99 98 95 93 93 89 83 82 86 79 65 61 63 61 56 50 48 46 46 53 59 58 54 48 51 61 69 64 56 52 52 49 47 44 43 44 43 40
99 99 99 99 98 96 95 91 87 84 73 58 62 70 56 37 32 32 27 25 22 20 19 22 27 30 31 28 22 27 43 57 63 62 57 54 52 47 41 38 39 41 40
94 96 97 98 96 93 92 90 85 76 55 37 46 55 39 20 14 11 7 6 6 5 5 7 7 8 9 9 7 11 21 34 45 54 57 61 61 55 47 41 41 44 47
83 85 88 92 91 88 87 82 77 67 42 28 42 57 47 26 14 6 3 2 1 0 1 1 1 1 2 3 4 4 6 12 21 32 47 61 70 70 62 53 50 52 54
58 64 74 85 86 85 82 70 65 61 40 30 49 70 68 49 28 15 8 4 1 1 0 0 0 1 2 2 2 2 1 3 6 13 27 45 66 79 75 65 57 55 53
34 47 67 80 85 87 84 74 71 69 54 50 66 82 81 62 41 26 16 8 4 2 1 0 0 1 1 2 2 1 1 1 1 3 9 22 45 68 78 72 62 55 52
27 42 63 76 83 88 91 88 86 82 75 75 83 88 83 69 52 40 30 19 9 3 1 0 0 0 1 2 1 0 0 1 1 0 1 6 20 44 65 72 69 64 60
26 40 60 72 78 86 93 94 92 89 86 87 89 90 86 75 62 52 43 29 14 4 1 1 1 1 2 2 1 0 0 0 1 0 0 1 7 26 52 69 73 72 71